This is the latest recevied weather packets stored in our database for station/object WD7OO. If no packets are shown the sender has not sent any weather packets the latest 1 day(s).
| Time | Temp. | Humidity | Pressure | Rain* | Wind** | Luminosity | Snow |
|---|---|---|---|---|---|---|---|
| 1778034783 | 8.33° C | 80% | 1009.9 hPa | 0 mm | 0 m/s | 0 W/m² | - |
| 1778034479 | 8.33° C | 80% | 1009.9 hPa | 0 mm | 0 m/s | 0 W/m² | - |
| 1778034178 | 8.89° C | 80% | 1010 hPa | 0 mm | 0 m/s | 0 W/m² | - |
| 1778033875 | 8.89° C | 80% | 1010.1 hPa | 0 mm | 0 m/s | 0 W/m² | - |
| 1778033572 | 8.89° C | 78% | 1010 hPa | 0 mm | 0 m/s | 0 W/m² | - |
| 1778033269 | 8.89° C | 76% | 1009.7 hPa | 0 mm | 0 m/s | 0 W/m² | - |
| 1778032967 | 8.89° C | 78% | 1010 hPa | 0 mm | 0 m/s | 0 W/m² | - |
| 1778032664 | 8.89° C | 79% | 1010.1 hPa | 0 mm | 0 m/s | 0 W/m² | - |
| 1778032373 | 8.89° C | 77% | 1009.7 hPa | 0 mm | 0 m/s | 0 W/m² | - |
| 1778032058 | 8.89° C | 76% | 1009.8 hPa | 0 mm | 0 m/s | 0 W/m² | - |
| 1778031755 | 8.89° C | 76% | 1009.4 hPa | 0 mm | 0 m/s | 0 W/m² | - |
| 1778031452 | 8.89° C | 73% | 1009.3 hPa | 0 mm | 0 m/s | 0 W/m² | - |
| 1778031149 | 8.89° C | 73% | 1009.6 hPa | 0 mm | 0 m/s | 0 W/m² | - |
| 1778030845 | 8.89° C | 74% | 1009.8 hPa | 0 mm | 0 m/s | 0 W/m² | - |
| 1778030542 | 9.44° C | 75% | 1009.4 hPa | 0 mm | 0 m/s | 0 W/m² | - |
| 1778030240 | 9.44° C | 76% | 1009.2 hPa | 0 mm | 0 m/s | 0 W/m² | - |
| 1778029936 | 9.44° C | 77% | 1009.4 hPa | 0 mm | 0 m/s | 0 W/m² | - |
| 1778029634 | 9.44° C | 73% | 1009.2 hPa | 0 mm | 0 m/s | 0 W/m² | - |
| 1778029331 | 9.44° C | 74% | 1009 hPa | 0 mm | 0 m/s | 0 W/m² | - |
| 1778029028 | 9.44° C | 75% | 1009.2 hPa | 0 mm | 0 m/s | 0 W/m² | - |
| 1778028725 | 9.44° C | 74% | 1009 hPa | 0 mm | 0 m/s | 0 W/m² | - |
| 1778028421 | 10° C | 72% | 1009.1 hPa | 0 mm | 0 m/s | 0 W/m² | - |
| 1778028119 | 10° C | 68% | 1008.8 hPa | 0 mm | 0 m/s | 0 W/m² | - |
| 1778027815 | 10° C | 69% | 1008.9 hPa | 0 mm | 0 m/s | 1 W/m² | - |
| 1778027511 | 10° C | 71% | 1008.7 hPa | 0 mm | 0 m/s | 2 W/m² | - |
* Rain latest hour (hover to see other rain measurements)
** Current wind speed in m/s (hover to see current wind gust speed)